Temperature
11 10 10 9 9 9 9 9 9 9 9 9 9 9 10 10 10 11 11 11 12 12 12 13 13 13 14 14 15 15 16 16 17 17 16 16 16 16 15 15 15 16 16
11 10 10 9 9 9 8 8 8 8 8 8 8 8 9 9 9 10 10 11 11 11 12 12 12 12 13 13 14 15 15 15 15 16 16 15 15 15 15 14 14 15 15
10 10 9 9 9 8 8 8 8 8 8 8 8 8 8 8 9 9 10 10 10 11 11 11 11 12 12 12 13 14 14 14 15 15 15 15 15 15 14 14 14 14 14
10 9 9 9 8 8 8 8 8 8 8 8 8 7 7 8 8 8 9 9 10 10 11 11 11 11 11 12 12 13 13 14 14 14 15 15 15 14 14 14 13 13 13
10 9 9 9 8 8 8 8 8 8 8 7 7 7 7 7 8 8 8 9 9 9 10 10 11 11 11 11 11 12 12 13 13 14 14 14 14 14 14 14 13 12 12
9 9 9 8 8 8 8 8 8 8 7 7 7 7 7 7 7 8 8 8 8 9 9 10 10 11 11 11 11 11 11 12 12 13 13 14 14 14 14 14 13 12 12
9 9 8 8 8 8 8 7 7 7 7 7 7 7 7 7 7 7 7 7 8 8 8 9 9 10 10 11 11 11 11 11 11 12 12 13 13 13 14 13 13 12 12
9 8 8 8 8 7 7 7 7 7 7 7 7 7 7 6 6 6 7 7 7 7 8 8 9 10 10 10 10 10 11 11 11 11 12 12 13 13 13 14 13 12 12
9 8 8 8 7 7 7 7 7 7 7 7 7 7 6 6 6 6 6 6 6 7 8 8 9 9 10 10 10 10 10 10 11 11 11 12 12 12 13 13 12 12 11
8 8 7 7 7 7 7 7 7 7 7 7 7 7 6 6 6 6 6 6 6 7 7 8 8 9 9 10 10 10 10 10 10 10 11 11 11 12 12 12 13 12 12
8 7 7 7 7 7 7 7 7 7 7 7 7 7 6 6 6 6 6 6 6 6 7 8 8 9 9 9 10 10 10 10 10 10 10 11 11 11 12 12 12 13 12
8 7 7 7 7 7 7 7 7 7 7 7 7 7 6 6 6 6 6 6 6 6 7 8 8 9 9 9 9 9 9 9 9 9 10 10 11 11 11 11 12 12 12
7 7 7 7 7 7 7 7 7 7 7 7 7 6 6 6 6 6 6 6 6 6 7 7 8 8 9 9 9 9 9 9 9 9 10 10 10 11 11 11 11 11 11
7 7 7 7 7 7 7 8 8 8 7 7 7 6 6 6 6 6 6 6 6 7 7 7 7 8 8 9 9 9 9 9 9 9 10 10 10 10 11 11 11 11 11
7 7 7 7 7 7 8 8 8 8 8 7 7 6 6 6 6 6 6 6 6 7 7 7 8 8 8 8 8 9 9 9 9 9 10 10 10 10 10 10 11 11 11
6 6 7 7 7 7 8 8 8 8 8 7 7 6 6 6 6 6 6 6 7 7 7 7 7 8 8 8 8 9 9 9 9 9 10 10 10 10 10 10 10 11 11
6 6 6 7 7 7 8 8 8 8 8 8 7 7 6 6 6 6 6 7 7 7 7 7 8 8 8 8 9 9 9 9 9 9 10 10 10 10 10 10 10 10 10
6 6 7 7 7 8 8 8 8 8 8 8 8 7 7 6 6 6 6 7 7 7 7 7 8 8 8 9 9 9 9 10 9 9 10 9 9 10 9 10 10 10 10
6 7 7 7 7 8 8 8 9 9 8 8 8 7 7 7 7 6 7 7 7 7 8 8 8 9 9 9 9 9 9 10 10 9 9 9 9 9 9 9 10 10 10
7 7 7 7 8 8 8 9 9 9 8 8 8 8 7 7 7 7 7 7 7 8 8 8 9 9 9 9 9 9 9 9 9 9 9 9 9 9 9 9 9 9 10
6 7 8 8 8 8 8 9 9 9 9 8 8 8 8 8 8 7 7 8 8 8 8 8 9 9 9 9 9 9 9 9 9 9 9 9 9 9 9 9 9 9 10
6 7 7 8 8 8 9 9 9 9 9 9 9 8 8 8 8 8 8 8 8 8 9 9 9 9 9 9 9 9 9 9 9 9 9 9 9 9 9 9 9 9 9
6 7 7 8 8 8 9 9 9 9 9 9 9 9 9 8 9 9 9 9 8 9 9 9 9 9 9 9 9 9 9 9 9 9 9 9 9 9 9 9 9 9 9
6 7 7 8 8 8 9 9 9 9 9 9 9 9 9 9 9 9 8 8 8 8 9 9 9 9 8 8 8 8 8 8 8 8 8 8 9 9 9 9 9 9 9
6 7 7 7 8 8 8 9 9 9 9 9 9 9 9 9 9 9 9 8 8 8 8 8 8 8 8 8 8 8 8 8 8 8 8 8 9 9 9 9 9 9 10
6 6 7 7 7 8 8 8 9 9 9 9 9 9 9 9 8 9 9 8 8 8 8 8 8 8 8 8 8 8 8 8 8 8 8 8 9 9 9 9 9 9 10
Wind_Speed
7 7 8 8 8 9 8 8 8 9 9 10 10 10 11 11 10 9 9 9 8 7 7 6 6 4 4 4 4 4 4 3 3 3 5 9 9 10 8 8 9 8 7
8 8 8 8 9 9 10 9 8 9 9 10 10 10 11 12 10 10 11 12 10 10 9 8 8 6 6 4 4 4 4 4 2 4 7 8 9 10 9 8 6 9 8
10 9 9 10 10 9 9 9 9 9 10 10 10 10 11 11 11 12 11 11 12 11 10 10 9 9 8 6 5 4 4 4 3 3 5 7 8 9 10 9 9 7 8
11 11 10 10 10 10 10 10 10 10 10 10 11 11 10 11 12 12 12 12 12 12 11 10 10 10 10 9 7 6 5 4 3 4 5 7 8 10 10 9 7 6 6
11 12 11 11 10 11 11 11 10 11 13 11 11 11 11 11 13 12 11 14 12 12 12 11 11 12 13 11 9 8 8 5 4 4 5 5 7 10 10 8 9 7 5
10 12 11 11 12 12 11 12 11 11 11 11 12 13 13 14 15 13 10 10 10 11 11 11 12 12 13 15 14 13 13 10 8 6 6 6 8 9 9 10 10 8 4
11 12 12 12 13 13 15 14 13 12 12 12 12 13 13 13 16 16 15 12 12 11 11 11 14 14 14 12 13 14 13 13 12 8 7 7 6 7 10 12 12 10 6
12 12 13 13 14 14 14 15 13 12 12 12 12 13 12 14 16 16 16 14 13 12 11 11 12 11 11 12 13 12 11 11 11 9 8 7 4 3 6 8 10 9 9
13 13 14 14 15 15 16 15 14 12 12 12 12 12 12 13 15 15 15 11 11 12 12 12 12 12 13 13 12 12 11 9 12 12 10 8 6 4 3 6 10 13 10
13 14 14 15 15 16 16 15 13 12 12 12 12 11 12 12 13 13 13 10 9 9 9 10 14 13 13 13 11 11 11 9 10 11 10 9 8 7 8 9 11 13 11
13 14 15 15 15 16 15 12 12 12 12 12 12 11 10 10 10 11 12 8 8 8 8 8 8 12 13 14 12 9 10 9 9 10 9 8 7 7 8 8 9 11 12
13 14 15 16 16 15 14 13 12 11 11 10 9 9 7 7 7 6 8 9 6 5 5 4 4 10 13 14 11 8 10 9 7 7 8 8 8 8 8 9 9 8 6
14 15 16 17 15 15 13 13 11 9 8 8 7 7 6 5 3 4 5 6 4 2 0 1 2 8 10 9 10 10 9 6 6 7 8 8 8 8 8 8 7 7 8
14 15 15 15 15 14 11 10 9 8 8 8 7 7 6 5 3 1 3 4 5 4 3 3 5 6 6 7 8 8 7 7 6 6 7 7 7 8 8 8 9 10 8
14 14 15 14 14 13 11 9 9 7 5 6 7 6 5 4 4 6 3 1 1 2 3 5 5 5 6 7 7 8 8 7 7 6 6 7 8 8 8 9 10 10 7
13 13 12 12 12 11 11 10 8 7 6 6 5 5 4 1 3 3 4 4 5 3 2 5 6 6 8 8 8 8 9 8 7 7 6 7 8 9 9 10 11 10 11
13 13 12 12 11 11 10 9 8 5 7 8 7 7 7 5 3 2 1 1 1 1 3 5 6 7 7 7 7 8 9 9 8 7 7 7 8 9 11 12 12 11 11
14 13 12 11 11 11 11 9 7 6 5 4 7 9 9 7 6 5 3 2 4 5 6 7 6 6 6 7 7 7 7 7 7 7 7 7 8 10 12 12 13 13 13
13 11 11 12 11 10 10 9 7 6 5 4 2 5 8 7 6 6 5 6 7 7 7 7 6 6 6 6 7 7 7 6 7 7 7 8 8 10 12 13 13 17 15
11 13 13 12 11 10 9 7 6 5 5 3 2 2 4 6 5 6 7 8 7 7 6 6 6 6 6 6 6 6 5 5 6 7 7 8 9 10 12 14 14 16 14
11 12 14 12 10 9 9 8 7 6 5 4 2 1 1 4 4 5 6 7 7 6 5 5 5 5 5 5 5 6 7 6 6 7 7 8 10 10 11 13 14 15 14
10 10 10 11 10 9 9 8 6 6 6 5 3 3 5 5 5 5 5 5 5 5 4 4 4 4 4 5 6 6 7 6 7 7 8 9 10 12 12 13 14 14 14
9 10 11 10 10 10 9 7 6 6 6 5 4 2 3 4 4 4 4 4 3 4 4 4 4 5 4 4 4 5 5 6 6 8 8 10 11 12 13 14 16 16 15
9 10 10 10 10 9 9 7 6 6 6 5 4 3 3 3 3 3 3 3 3 3 4 4 4 4 4 3 2 3 3 4 5 7 10 11 12 13 13 14 15 17 16
9 9 10 10 10 9 9 8 7 6 6 5 5 4 4 3 3 3 2 2 3 3 3 2 2 2 4 4 4 3 5 5 4 6 9 10 13 14 15 15 14 14 13
9 9 9 9 9 9 9 8 7 6 6 6 5 4 4 4 4 3 2 1 1 2 1 1 2 3 3 3 5 7 7 6 5 5 7 10 12 13 15 13 16 14 14
Wind_Direction
332 331 324 317 314 307 301 302 309 311 311 305 302 298 295 290 281 267 253 250 236 224 215 218 224 222 244 266 282 294 291 278 238 188 147 145 138 132 132 130 138 121 91
331 326 318 314 310 308 308 309 305 301 300 300 299 297 293 290 286 279 266 256 244 233 222 214 213 211 212 227 247 264 276 283 262 202 154 154 150 140 140 137 124 107 96
324 320 315 312 309 306 304 301 299 296 293 292 290 289 288 288 286 281 274 266 256 245 233 221 212 204 205 203 211 227 246 264 268 227 190 165 151 146 136 122 110 109 106
321 316 309 307 305 303 300 298 296 294 292 289 287 285 283 282 280 277 273 269 261 253 243 231 218 209 205 199 202 207 212 223 242 241 216 175 159 151 140 135 129 126 119
315 310 306 305 303 300 298 298 296 294 294 292 290 286 282 279 272 266 264 266 261 254 249 239 229 217 210 200 198 195 195 199 208 223 220 195 170 163 160 153 143 129 114
311 308 307 305 304 302 301 297 296 296 295 291 286 283 279 277 281 287 282 279 275 265 255 246 242 228 218 201 196 191 190 195 199 205 212 209 195 180 165 157 148 147 144
312 310 309 309 309 307 306 304 300 299 297 291 285 280 276 272 270 269 267 265 263 260 251 244 244 233 210 199 196 194 195 197 194 191 206 211 202 189 172 164 163 162 146
316 314 313 311 309 307 304 300 299 297 295 291 285 281 277 273 265 258 257 258 256 250 243 236 235 245 225 199 192 196 200 200 198 197 203 209 208 207 183 171 161 138 123
317 317 316 313 308 305 303 301 299 297 294 290 286 280 277 274 266 257 249 256 249 245 238 234 228 228 228 204 193 195 198 199 201 201 200 199 200 212 207 162 156 148 144
322 319 314 309 305 303 299 297 297 295 292 292 288 284 282 279 269 253 241 247 245 241 235 235 228 221 213 196 194 194 200 200 189 193 202 206 206 213 206 182 168 159 150
322 316 312 308 304 299 296 297 297 296 295 293 290 288 285 279 270 249 232 234 237 233 229 225 222 204 198 194 194 194 198 194 188 186 193 201 202 202 192 187 184 169 160
318 315 312 309 306 304 302 300 297 296 296 294 293 295 292 285 272 253 226 225 241 238 228 220 214 196 198 194 192 190 182 183 187 187 190 196 197 196 190 189 187 172 153
319 314 312 310 307 302 299 299 301 300 299 302 306 307 310 308 285 232 207 206 218 239 350 63 213 192 191 197 200 180 175 195 196 192 195 199 193 188 179 173 154 137 120
317 315 313 310 308 306 302 300 300 302 308 316 318 320 324 326 325 286 197 188 186 194 202 176 176 185 200 205 185 187 201 210 204 206 197 190 181 181 174 157 146 136 124
317 315 313 310 307 306 304 298 296 298 300 295 311 321 329 333 3 18 20 64 150 160 197 189 188 184 202 208 200 194 203 213 216 215 202 187 181 178 169 156 150 145 141
317 316 313 309 307 306 305 306 291 274 255 242 249 282 302 312 342 12 51 59 47 40 213 211 213 212 211 208 205 202 203 209 211 206 199 188 180 176 165 157 158 156 153
314 312 310 307 306 307 307 306 307 286 242 242 242 252 260 281 285 303 -0 37 10 15 236 231 222 220 220 219 213 209 207 207 206 203 192 187 179 172 167 164 164 159 158
313 309 308 308 308 307 307 307 307 309 298 265 227 228 236 246 251 247 231 241 236 223 236 241 232 227 222 222 222 218 210 203 196 192 188 185 180 173 171 170 169 164 161
314 313 315 313 309 306 307 310 312 316 308 292 228 196 214 225 233 235 216 234 240 234 231 232 231 227 227 222 220 216 209 195 188 185 186 183 181 176 174 173 171 166 163
314 311 313 312 312 313 314 318 323 323 320 313 270 231 186 203 220 208 213 229 241 247 249 242 234 225 216 212 211 205 203 194 187 187 185 185 180 179 177 173 171 170 172
316 317 317 316 321 323 322 325 329 327 320 316 306 161 223 249 249 237 226 226 235 239 240 239 235 227 214 200 203 206 208 202 195 193 191 186 181 179 176 174 172 172 172
314 318 321 322 324 323 324 319 325 328 327 329 313 202 212 253 266 250 240 234 233 235 239 242 242 231 220 211 203 203 208 205 198 192 187 184 180 177 173 172 173 174 172
316 321 324 324 324 322 321 328 334 335 337 333 327 307 232 251 262 262 255 252 239 224 223 233 250 248 229 206 198 199 209 204 192 185 182 181 178 175 172 171 173 172 172
320 323 326 328 328 332 334 337 342 346 346 339 337 334 311 292 282 272 270 259 245 241 238 238 242 231 204 190 182 193 196 181 181 188 184 180 176 174 171 172 174 174 172
327 330 330 330 331 333 332 338 344 346 347 343 345 347 340 331 317 299 288 272 253 248 246 237 233 215 199 196 188 160 132 137 167 181 175 175 172 169 167 169 171 169 166
333 335 332 333 332 332 332 335 341 347 351 357 1 1 360 352 340 334 328 315 281 263 253 204 179 172 163 151 133 128 128 131 140 143 157 163 163 163 163 165 163 163 159
Height
1481 1477 1474 1471 1468 1465 1462 1460 1457 1454 1452 1450 1449 1448 1447 1447 1447 1448 1448 1448 1449 1449 1449 1450 1451 1453 1455 1458 1461 1464 1467 1470 1472 1475 1476 1478 1481 1483 1485 1487 1489 1491 1493
1477 1473 1470 1467 1463 1460 1458 1455 1452 1449 1447 1445 1443 1441 1440 1440 1440 1440 1441 1442 1442 1443 1444 1445 1445 1447 1448 1451 1454 1458 1461 1464 1468 1471 1473 1475 1477 1480 1483 1485 1486 1488 1490
1473 1469 1466 1463 1459 1456 1453 1450 1447 1444 1441 1439 1437 1435 1434 1433 1432 1432 1433 1434 1435 1437 1438 1439 1440 1441 1442 1444 1447 1451 1455 1458 1462 1466 1469 1472 1474 1477 1480 1482 1484 1485 1487
1469 1466 1462 1459 1455 1452 1449 1445 1442 1439 1436 1433 1431 1429 1427 1426 1425 1425 1425 1426 1427 1429 1431 1433 1434 1436 1437 1438 1440 1443 1447 1451 1456 1460 1464 1468 1471 1473 1476 1479 1481 1483 1485
1465 1461 1458 1454 1451 1447 1444 1440 1437 1433 1430 1427 1424 1422 1420 1419 1418 1418 1417 1417 1419 1420 1422 1425 1428 1430 1431 1433 1435 1437 1440 1444 1448 1453 1458 1462 1466 1469 1472 1475 1478 1481 1484
1461 1457 1453 1450 1446 1442 1438 1434 1431 1427 1424 1420 1417 1414 1412 1411 1411 1410 1409 1409 1410 1412 1413 1416 1420 1423 1425 1427 1429 1431 1434 1437 1442 1446 1450 1455 1459 1463 1467 1471 1474 1477 1481
1457 1453 1449 1444 1440 1436 1432 1428 1424 1420 1417 1413 1410 1407 1404 1402 1401 1400 1400 1400 1401 1402 1405 1408 1412 1415 1418 1420 1422 1425 1427 1430 1435 1439 1443 1448 1453 1458 1462 1466 1469 1474 1477
1452 1448 1443 1439 1434 1430 1425 1421 1417 1414 1410 1406 1402 1399 1396 1393 1392 1390 1390 1390 1391 1392 1396 1399 1404 1407 1411 1413 1416 1418 1421 1424 1427 1432 1437 1442 1447 1452 1456 1461 1465 1470 1475
1447 1443 1438 1433 1428 1423 1419 1415 1411 1407 1403 1399 1396 1392 1388 1385 1383 1381 1381 1381 1382 1384 1387 1391 1396 1400 1404 1407 1410 1412 1415 1418 1422 1426 1431 1436 1440 1445 1450 1455 1460 1465 1470
1442 1437 1432 1427 1422 1417 1413 1409 1405 1401 1397 1393 1389 1385 1381 1378 1375 1373 1373 1373 1374 1377 1381 1385 1389 1394 1398 1401 1405 1408 1411 1413 1417 1421 1425 1429 1434 1439 1444 1448 1453 1458 1463
1437 1431 1426 1421 1416 1412 1407 1404 1400 1396 1392 1387 1383 1379 1375 1371 1368 1366 1366 1367 1369 1371 1375 1379 1383 1388 1393 1396 1400 1404 1407 1411 1414 1417 1420 1424 1428 1433 1438 1443 1449 1453 1458
1431 1426 1421 1415 1411 1407 1403 1399 1395 1391 1387 1382 1378 1374 1370 1366 1364 1362 1362 1363 1366 1368 1371 1376 1379 1384 1388 1392 1397 1401 1404 1408 1411 1413 1416 1420 1423 1428 1433 1439 1444 1450 1455
1426 1421 1416 1410 1406 1402 1398 1395 1391 1387 1383 1379 1375 1371 1367 1364 1361 1360 1360 1361 1364 1367 1370 1373 1377 1381 1385 1389 1393 1397 1401 1404 1407 1410 1413 1416 1420 1424 1430 1435 1440 1445 1451
1422 1417 1411 1406 1401 1398 1395 1391 1387 1384 1380 1376 1372 1369 1365 1362 1361 1360 1360 1362 1364 1367 1370 1373 1376 1379 1382 1386 1389 1393 1397 1400 1403 1406 1410 1413 1416 1420 1424 1429 1434 1440 1446
1418 1413 1407 1403 1398 1394 1391 1388 1384 1381 1377 1374 1370 1367 1364 1362 1360 1360 1361 1363 1365 1367 1370 1373 1375 1378 1380 1383 1386 1389 1392 1396 1399 1403 1406 1409 1412 1416 1420 1425 1430 1435 1441
1414 1409 1404 1399 1395 1391 1388 1384 1380 1377 1374 1370 1367 1365 1362 1361 1360 1360 1361 1363 1365 1367 1369 1371 1374 1375 1377 1380 1383 1386 1389 1392 1395 1399 1402 1405 1408 1411 1415 1420 1426 1431 1436
1411 1406 1401 1397 1393 1389 1385 1381 1377 1374 1371 1367 1365 1363 1361 1359 1359 1359 1360 1362 1364 1366 1368 1369 1371 1372 1374 1376 1379 1382 1385 1388 1391 1395 1397 1400 1403 1407 1411 1415 1420 1426 1432
1408 1403 1399 1394 1390 1386 1383 1379 1375 1371 1368 1365 1363 1361 1359 1358 1358 1358 1359 1361 1362 1364 1365 1367 1368 1369 1371 1373 1375 1378 1381 1384 1387 1389 1392 1395 1398 1402 1406 1410 1416 1421 1427
1405 1401 1397 1392 1388 1384 1381 1377 1373 1370 1367 1364 1362 1360 1359 1357 1357 1357 1357 1358 1360 1361 1363 1364 1365 1366 1368 1369 1372 1374 1377 1379 1382 1384 1387 1390 1393 1398 1402 1407 1412 1417 1423
1402 1399 1395 1390 1386 1383 1379 1376 1372 1369 1366 1363 1361 1360 1358 1357 1356 1356 1356 1356 1358 1359 1360 1361 1362 1363 1364 1366 1368 1370 1373 1375 1377 1379 1382 1385 1388 1392 1397 1402 1407 1412 1419
1400 1396 1393 1389 1386 1382 1378 1375 1372 1368 1365 1363 1361 1359 1358 1357 1357 1356 1355 1355 1356 1356 1357 1358 1358 1360 1361 1362 1364 1366 1368 1370 1372 1374 1377 1380 1383 1388 1393 1398 1403 1409 1416
1398 1395 1391 1388 1384 1381 1378 1374 1371 1368 1365 1363 1361 1359 1357 1356 1356 1355 1354 1354 1354 1354 1354 1355 1356 1357 1357 1359 1360 1361 1363 1364 1366 1368 1371 1374 1378 1383 1388 1394 1400 1406 1412
1397 1394 1390 1387 1384 1380 1377 1374 1371 1368 1365 1362 1360 1359 1357 1356 1355 1354 1353 1352 1351 1351 1352 1352 1352 1353 1353 1354 1355 1356 1358 1359 1360 1363 1366 1369 1373 1378 1384 1390 1396 1403 1410
1396 1393 1389 1386 1383 1380 1377 1374 1371 1368 1365 1363 1360 1358 1357 1355 1353 1352 1351 1350 1349 1349 1349 1349 1349 1349 1349 1350 1351 1352 1353 1354 1356 1358 1361 1365 1369 1375 1380 1387 1393 1401 1408
1396 1392 1388 1385 1382 1380 1377 1374 1371 1369 1366 1363 1361 1359 1356 1354 1353 1351 1349 1348 1347 1346 1346 1345 1345 1345 1346 1346 1347 1347 1348 1349 1351 1354 1357 1361 1366 1371 1377 1384 1392 1399 1407
1394 1391 1388 1385 1382 1379 1377 1375 1372 1370 1367 1364 1362 1359 1357 1355 1353 1351 1349 1347 1345 1344 1343 1342 1342 1342 1342 1343 1344 1344 1345 1347 1348 1351 1354 1359 1364 1370 1377 1384 1391 1399 1406